Year,Month,Day,Hour,Minute,Value (Times are PST for temperature in C)
2017,04,15,00,00,7.60
2017,04,15,00,01,7.60
2017,04,15,00,02,7.60
2017,04,15,00,03,7.60
2017,04,15,00,04,7.60
2017,04,15,00,05,7.60
2017,04,15,00,06,7.70
2017,04,15,00,07,7.70
2017,04,15,00,08,7.70
2017,04,15,00,09,7.70
2017,04,15,00,10,7.70
2017,04,15,00,11,7.70
2017,04,15,00,12,7.70
2017,04,15,00,13,7.70
2017,04,15,00,14,7.70
2017,04,15,00,15,7.70
2017,04,15,00,16,7.70
2017,04,15,00,17,7.70
2017,04,15,00,18,7.70
2017,04,15,00,19,7.70
2017,04,15,00,20,7.70
2017,04,15,00,21,7.70
2017,04,15,00,22,7.70
2017,04,15,00,23,7.70
2017,04,15,00,24,7.70
2017,04,15,00,25,7.70
2017,04,15,00,26,7.70
2017,04,15,00,27,7.70
2017,04,15,00,28,7.70
2017,04,15,00,29,7.70
2017,04,15,00,30,7.70
2017,04,15,00,31,7.70
2017,04,15,00,32,7.70
2017,04,15,00,33,7.70
2017,04,15,00,34,7.60
2017,04,15,00,35,7.60
2017,04,15,00,36,7.60
2017,04,15,00,37,7.60
2017,04,15,00,38,7.60
2017,04,15,00,39,7.60
2017,04,15,00,40,7.60
2017,04,15,00,41,7.60
2017,04,15,00,42,7.60
2017,04,15,00,43,7.60
2017,04,15,00,44,7.60
2017,04,15,00,45,7.60
2017,04,15,00,46,7.60
2017,04,15,00,47,7.60
2017,04,15,00,48,7.60
2017,04,15,00,49,7.60
2017,04,15,00,50,7.60
2017,04,15,00,51,7.60
2017,04,15,00,52,7.60
2017,04,15,00,53,7.60
2017,04,15,00,54,7.60
2017,04,15,00,55,7.60
2017,04,15,00,56,7.60
2017,04,15,00,57,7.60
2017,04,15,00,58,7.60
2017,04,15,00,59,7.60
2017,04,15,01,00,7.60
2017,04,15,01,01,7.60
2017,04,15,01,02,7.60
2017,04,15,01,03,7.60
2017,04,15,01,04,7.60
2017,04,15,01,05,7.60
2017,04,15,01,06,7.60
2017,04,15,01,07,7.60
2017,04,15,01,08,7.60
2017,04,15,01,09,7.60
2017,04,15,01,10,7.60
2017,04,15,01,11,7.60
2017,04,15,01,12,7.50
2017,04,15,01,13,7.60
2017,04,15,01,14,7.50
2017,04,15,01,15,7.50
2017,04,15,01,16,7.60
2017,04,15,01,17,7.50
2017,04,15,01,18,7.50
2017,04,15,01,19,7.60
2017,04,15,01,20,7.50
2017,04,15,01,21,7.60
2017,04,15,01,22,7.60
2017,04,15,01,23,7.50
2017,04,15,01,24,7.60
2017,04,15,01,25,7.50
2017,04,15,01,26,7.50
2017,04,15,01,27,7.50
2017,04,15,01,28,7.50
2017,04,15,01,29,7.50
2017,04,15,01,30,7.50
2017,04,15,01,31,7.50
2017,04,15,01,32,7.50
2017,04,15,01,33,7.50
2017,04,15,01,34,7.50
2017,04,15,01,35,7.50
2017,04,15,01,36,7.50
2017,04,15,01,37,7.50
2017,04,15,01,38,7.50
2017,04,15,01,39,7.50
2017,04,15,01,40,7.50
2017,04,15,01,41,7.50
2017,04,15,01,42,7.50
2017,04,15,01,43,7.50
2017,04,15,01,44,7.50
2017,04,15,01,45,7.50
2017,04,15,01,46,7.40
2017,04,15,01,47,7.40
2017,04,15,01,48,7.40
2017,04,15,01,49,7.40
2017,04,15,01,50,7.40
2017,04,15,01,51,7.40
2017,04,15,01,52,7.40
2017,04,15,01,53,7.40
2017,04,15,01,54,7.40
2017,04,15,01,55,7.40
2017,04,15,01,56,7.30
2017,04,15,01,57,7.30
2017,04,15,01,58,7.40
2017,04,15,01,59,7.40
2017,04,15,02,00,7.40
2017,04,15,02,01,7.40
2017,04,15,02,02,7.40
2017,04,15,02,03,7.40
2017,04,15,02,04,7.30
2017,04,15,02,05,7.30
2017,04,15,02,06,7.30
2017,04,15,02,07,7.30
2017,04,15,02,08,7.40
2017,04,15,02,09,7.40
2017,04,15,02,10,7.40
2017,04,15,02,11,7.40
2017,04,15,02,12,7.40
2017,04,15,02,13,7.40
2017,04,15,02,14,7.40
2017,04,15,02,15,7.40
2017,04,15,02,16,7.40
2017,04,15,02,17,7.40
2017,04,15,02,18,7.40
2017,04,15,02,19,7.40
2017,04,15,02,20,7.40
2017,04,15,02,21,7.40
2017,04,15,02,22,7.40
2017,04,15,02,23,7.30
2017,04,15,02,24,7.30
2017,04,15,02,25,7.30
2017,04,15,02,26,7.30
2017,04,15,02,27,7.30
2017,04,15,02,28,7.20
2017,04,15,02,29,7.20
2017,04,15,02,30,7.20
2017,04,15,02,31,7.20
2017,04,15,02,32,7.20
2017,04,15,02,33,7.20
2017,04,15,02,34,7.20
2017,04,15,02,35,7.20
2017,04,15,02,36,7.20
2017,04,15,02,37,7.20
2017,04,15,02,38,7.20
2017,04,15,02,39,7.20
2017,04,15,02,40,7.20
2017,04,15,02,41,7.20
2017,04,15,02,42,7.30
2017,04,15,02,43,7.30
2017,04,15,02,44,7.30
2017,04,15,02,45,7.30
2017,04,15,02,46,7.30
2017,04,15,02,47,7.30
2017,04,15,02,48,7.30
2017,04,15,02,49,7.40
2017,04,15,02,50,7.40
2017,04,15,02,51,7.30
2017,04,15,02,52,7.30
2017,04,15,02,53,7.30
2017,04,15,02,54,7.30
2017,04,15,02,55,7.30
2017,04,15,02,56,7.30
2017,04,15,02,57,7.30
2017,04,15,02,58,7.30
2017,04,15,02,59,7.30
2017,04,15,03,00,7.30
2017,04,15,03,01,7.30
2017,04,15,03,02,7.30
2017,04,15,03,03,7.30
2017,04,15,03,04,7.20
2017,04,15,03,05,7.20
2017,04,15,03,06,7.20
2017,04,15,03,07,7.20
2017,04,15,03,08,7.20
2017,04,15,03,09,7.20
2017,04,15,03,10,7.20
2017,04,15,03,11,7.20
2017,04,15,03,12,7.20
2017,04,15,03,13,7.20
2017,04,15,03,14,7.20
2017,04,15,03,15,7.20
2017,04,15,03,16,7.20
2017,04,15,03,17,7.10
2017,04,15,03,18,7.10
2017,04,15,03,19,7.10
2017,04,15,03,20,7.10
2017,04,15,03,21,7.10
2017,04,15,03,22,7.10
2017,04,15,03,23,7.10
2017,04,15,03,24,7.10
2017,04,15,03,25,7.10
2017,04,15,03,26,7.10
2017,04,15,03,27,7.10
2017,04,15,03,28,7.10
2017,04,15,03,29,7.10
2017,04,15,03,30,7.10
2017,04,15,03,31,7.10
2017,04,15,03,32,7.10
2017,04,15,03,33,7.10
2017,04,15,03,34,7.10
2017,04,15,03,35,7.10
2017,04,15,03,36,7.10
2017,04,15,03,37,7.10
2017,04,15,03,38,7.10
2017,04,15,03,39,7.10
2017,04,15,03,40,7.10
2017,04,15,03,41,7.10
2017,04,15,03,42,7.10
2017,04,15,03,43,7.10
2017,04,15,03,44,7.10
2017,04,15,03,45,7.10
2017,04,15,03,46,7.10
2017,04,15,03,47,7.10
2017,04,15,03,48,7.10
2017,04,15,03,49,7.10
2017,04,15,03,50,7.10
2017,04,15,03,51,7.10
2017,04,15,03,52,7.10
2017,04,15,03,53,7.10
2017,04,15,03,54,7.10
2017,04,15,03,55,7.10
2017,04,15,03,56,7.10
2017,04,15,03,57,7.10
2017,04,15,03,58,7.10
2017,04,15,03,59,7.00
2017,04,15,04,00,7.00
2017,04,15,04,01,7.00
2017,04,15,04,02,7.00
2017,04,15,04,03,6.90
2017,04,15,04,04,6.90
2017,04,15,04,05,6.90
2017,04,15,04,06,6.80
2017,04,15,04,07,6.80
2017,04,15,04,08,6.80
2017,04,15,04,09,6.80
2017,04,15,04,10,6.70
2017,04,15,04,11,6.70
2017,04,15,04,12,6.70
2017,04,15,04,13,6.70
2017,04,15,04,14,6.60
2017,04,15,04,15,6.60
2017,04,15,04,16,6.60
2017,04,15,04,17,6.60
2017,04,15,04,18,6.60
2017,04,15,04,19,6.50
2017,04,15,04,20,6.50
2017,04,15,04,21,6.50
2017,04,15,04,22,6.40
2017,04,15,04,23,6.40
2017,04,15,04,24,6.40
2017,04,15,04,25,6.40
2017,04,15,04,26,6.40
2017,04,15,04,27,6.40
2017,04,15,04,28,6.30
2017,04,15,04,29,6.30
2017,04,15,04,30,6.30
2017,04,15,04,31,6.30
2017,04,15,04,32,6.30
2017,04,15,04,33,6.30
2017,04,15,04,34,6.20
2017,04,15,04,35,6.20
2017,04,15,04,36,6.20
2017,04,15,04,37,6.20
2017,04,15,04,38,6.20
2017,04,15,04,39,6.20
2017,04,15,04,40,6.20
2017,04,15,04,41,6.10
2017,04,15,04,42,6.10
2017,04,15,04,43,6.10
2017,04,15,04,44,6.10
2017,04,15,04,45,6.10
2017,04,15,04,46,6.10
2017,04,15,04,47,6.00
2017,04,15,04,48,6.00
2017,04,15,04,49,6.00
2017,04,15,04,50,6.00
2017,04,15,04,51,6.00
2017,04,15,04,52,6.00
2017,04,15,04,53,5.90
2017,04,15,04,54,5.90
2017,04,15,04,55,5.90
2017,04,15,04,56,5.90
2017,04,15,04,57,5.90
2017,04,15,04,58,5.90
2017,04,15,04,59,5.90
2017,04,15,05,00,5.90
2017,04,15,05,01,5.90
2017,04,15,05,02,5.90
2017,04,15,05,03,5.90
2017,04,15,05,04,5.90
2017,04,15,05,05,5.90
2017,04,15,05,06,5.90
2017,04,15,05,07,5.90
2017,04,15,05,08,5.90
2017,04,15,05,09,5.90
2017,04,15,05,10,5.90
2017,04,15,05,11,5.90
2017,04,15,05,12,5.90
2017,04,15,05,13,5.90
2017,04,15,05,14,5.90
2017,04,15,05,15,5.90
2017,04,15,05,16,5.80
2017,04,15,05,17,5.90
2017,04,15,05,18,5.90
2017,04,15,05,19,5.90
2017,04,15,05,20,5.80
2017,04,15,05,21,5.80
2017,04,15,05,22,5.90
2017,04,15,05,23,5.90
2017,04,15,05,24,5.90
2017,04,15,05,25,5.90
2017,04,15,05,26,5.80
2017,04,15,05,27,5.90
2017,04,15,05,28,5.90
2017,04,15,05,29,5.90
2017,04,15,05,30,5.80
2017,04,15,05,31,5.80
2017,04,15,05,32,5.80
2017,04,15,05,33,5.80
2017,04,15,05,34,5.80
2017,04,15,05,35,5.80
2017,04,15,05,36,5.80
2017,04,15,05,37,5.80
2017,04,15,05,38,5.80
2017,04,15,05,39,5.80
2017,04,15,05,40,5.80
2017,04,15,05,41,5.80
2017,04,15,05,42,5.80
2017,04,15,05,43,5.80
2017,04,15,05,44,5.80
2017,04,15,05,45,5.70
2017,04,15,05,46,5.70
2017,04,15,05,47,5.70
2017,04,15,05,48,5.70
2017,04,15,05,49,5.70
2017,04,15,05,50,5.70
2017,04,15,05,51,5.70
2017,04,15,05,52,5.70
2017,04,15,05,53,5.70
2017,04,15,05,54,5.70
2017,04,15,05,55,5.70
2017,04,15,05,56,5.70
2017,04,15,05,57,5.70
2017,04,15,05,58,5.60
2017,04,15,05,59,5.60
2017,04,15,06,00,5.60
2017,04,15,06,01,5.60
2017,04,15,06,02,5.60
2017,04,15,06,03,5.60
2017,04,15,06,04,5.60
2017,04,15,06,05,5.50
2017,04,15,06,06,5.50
2017,04,15,06,07,5.50
2017,04,15,06,08,5.50
2017,04,15,06,09,5.50
2017,04,15,06,10,5.50
2017,04,15,06,11,5.50
2017,04,15,06,12,5.50
2017,04,15,06,13,5.50
2017,04,15,06,14,5.50
2017,04,15,06,15,5.50
2017,04,15,06,16,5.50
2017,04,15,06,17,5.50
2017,04,15,06,18,5.50
2017,04,15,06,19,5.50
2017,04,15,06,20,5.50
2017,04,15,06,21,5.50
2017,04,15,06,22,5.50
2017,04,15,06,23,5.50
2017,04,15,06,24,5.50
2017,04,15,06,25,5.40
2017,04,15,06,26,5.40
2017,04,15,06,27,5.40
2017,04,15,06,28,5.40
2017,04,15,06,29,5.40
2017,04,15,06,30,5.40
2017,04,15,06,31,5.40
2017,04,15,06,32,5.40
2017,04,15,06,33,5.40
2017,04,15,06,34,5.40
2017,04,15,06,35,5.40
2017,04,15,06,36,5.40
2017,04,15,06,37,5.40
2017,04,15,06,38,5.40
2017,04,15,06,39,5.40
2017,04,15,06,40,5.40
2017,04,15,06,41,5.40
2017,04,15,06,42,5.40
2017,04,15,06,43,5.40
2017,04,15,06,44,5.40
2017,04,15,06,45,5.40
2017,04,15,06,46,5.40
2017,04,15,06,47,5.40
2017,04,15,06,48,5.40
2017,04,15,06,49,5.40
2017,04,15,06,50,5.40
2017,04,15,06,51,5.40
2017,04,15,06,52,5.40
2017,04,15,06,53,5.40
2017,04,15,06,54,5.40
2017,04,15,06,55,5.40
2017,04,15,06,56,5.40
2017,04,15,06,57,5.40
2017,04,15,06,58,5.40
2017,04,15,06,59,5.40
2017,04,15,07,00,5.40
2017,04,15,07,01,5.40
2017,04,15,07,02,5.40
2017,04,15,07,03,5.40
2017,04,15,07,04,5.40
2017,04,15,07,05,5.40
2017,04,15,07,06,5.40
2017,04,15,07,07,5.40
2017,04,15,07,08,5.40
2017,04,15,07,09,5.40
2017,04,15,07,10,5.40
2017,04,15,07,11,5.40
2017,04,15,07,12,5.40
2017,04,15,07,13,5.40
2017,04,15,07,14,5.40
2017,04,15,07,15,5.40
2017,04,15,07,16,5.40
2017,04,15,07,17,5.50
2017,04,15,07,18,5.50
2017,04,15,07,19,5.50
2017,04,15,07,20,5.50
2017,04,15,07,21,5.50
2017,04,15,07,22,5.50
2017,04,15,07,23,5.50
2017,04,15,07,24,5.50
2017,04,15,07,25,5.50
2017,04,15,07,26,5.50
2017,04,15,07,27,5.50
2017,04,15,07,28,5.50
2017,04,15,07,29,5.50
2017,04,15,07,30,5.50
2017,04,15,07,31,5.50
2017,04,15,07,32,5.60
2017,04,15,07,33,5.60
2017,04,15,07,34,5.60
2017,04,15,07,35,5.60
2017,04,15,07,36,5.60
2017,04,15,07,37,5.60
2017,04,15,07,38,5.60
2017,04,15,07,39,5.60
2017,04,15,07,40,5.70
2017,04,15,07,41,5.70
2017,04,15,07,42,5.70
2017,04,15,07,43,5.70
2017,04,15,07,44,5.70
2017,04,15,07,45,5.70
2017,04,15,07,46,5.80
2017,04,15,07,47,5.80
2017,04,15,07,48,5.80
2017,04,15,07,49,5.80
2017,04,15,07,50,5.80
2017,04,15,07,51,5.80
2017,04,15,07,52,5.80
2017,04,15,07,53,5.80
2017,04,15,07,54,5.80
2017,04,15,07,55,5.80
2017,04,15,07,56,5.80
2017,04,15,07,57,5.80
2017,04,15,07,58,5.80
2017,04,15,07,59,5.90
2017,04,15,08,00,5.90
2017,04,15,08,01,5.90
2017,04,15,08,02,5.90
2017,04,15,08,03,6.00
2017,04,15,08,04,6.00
2017,04,15,08,05,6.00
2017,04,15,08,06,6.10
2017,04,15,08,07,6.10
2017,04,15,08,08,6.10
2017,04,15,08,09,6.10
2017,04,15,08,10,6.10
2017,04,15,08,11,6.20
2017,04,15,08,12,6.20
2017,04,15,08,13,6.20
2017,04,15,08,14,6.20
2017,04,15,08,15,6.20
2017,04,15,08,16,6.30
2017,04,15,08,17,6.30
2017,04,15,08,18,6.30
2017,04,15,08,19,6.30
2017,04,15,08,20,6.40
2017,04,15,08,21,6.40
2017,04,15,08,22,6.40
2017,04,15,08,23,6.40
2017,04,15,08,24,6.50
2017,04,15,08,25,6.50
2017,04,15,08,26,6.50
2017,04,15,08,27,6.50
2017,04,15,08,28,6.60
2017,04,15,08,29,6.60
2017,04,15,08,30,6.60
2017,04,15,08,31,6.60
2017,04,15,08,32,6.70
2017,04,15,08,33,6.70
2017,04,15,08,34,6.70
2017,04,15,08,35,6.80
2017,04,15,08,36,6.80
2017,04,15,08,37,6.80
2017,04,15,08,38,6.90
2017,04,15,08,39,6.90
2017,04,15,08,40,6.90
2017,04,15,08,41,7.00
2017,04,15,08,42,7.00
2017,04,15,08,43,7.00
2017,04,15,08,44,7.10
2017,04,15,08,45,7.10
2017,04,15,08,46,7.10
2017,04,15,08,47,7.10
2017,04,15,08,48,7.10
2017,04,15,08,49,7.20
2017,04,15,08,50,7.20
2017,04,15,08,51,7.20
2017,04,15,08,52,7.30
2017,04,15,08,53,7.30
2017,04,15,08,54,7.30
2017,04,15,08,55,7.40
2017,04,15,08,56,7.50
2017,04,15,08,57,7.50
2017,04,15,08,58,7.60
2017,04,15,08,59,7.60
2017,04,15,09,00,7.70
2017,04,15,09,01,7.80
2017,04,15,09,02,7.80
2017,04,15,09,03,7.80
2017,04,15,09,04,7.80
2017,04,15,09,05,7.90
2017,04,15,09,06,8.00
2017,04,15,09,07,8.00
2017,04,15,09,08,8.10
2017,04,15,09,09,8.20
2017,04,15,09,10,8.20
2017,04,15,09,11,8.20
2017,04,15,09,12,8.20
2017,04,15,09,13,8.20
2017,04,15,09,14,8.30
2017,04,15,09,15,8.30
2017,04,15,09,16,8.30
2017,04,15,09,17,8.30
2017,04,15,09,18,8.30
2017,04,15,09,19,8.30
2017,04,15,09,20,8.30
2017,04,15,09,21,8.30
2017,04,15,09,22,8.40
2017,04,15,09,23,8.50
2017,04,15,09,24,8.50
2017,04,15,09,25,8.60
2017,04,15,09,26,8.60
2017,04,15,09,27,8.70
2017,04,15,09,28,8.70
2017,04,15,09,29,8.80
2017,04,15,09,30,8.80
2017,04,15,09,31,8.80
2017,04,15,09,32,8.80
2017,04,15,09,33,8.80
2017,04,15,09,34,8.80
2017,04,15,09,35,8.80
2017,04,15,09,36,8.80
2017,04,15,09,37,8.90
2017,04,15,09,38,8.90
2017,04,15,09,39,9.00
2017,04,15,09,40,8.90
2017,04,15,09,41,8.90
2017,04,15,09,42,9.00
2017,04,15,09,43,9.00
2017,04,15,09,44,9.00
2017,04,15,09,45,9.10
2017,04,15,09,46,9.10
2017,04,15,09,47,9.00
2017,04,15,09,48,9.10
2017,04,15,09,49,9.10
2017,04,15,09,50,9.20
2017,04,15,09,51,9.20
2017,04,15,09,52,9.20
2017,04,15,09,53,9.20
2017,04,15,09,54,9.10
2017,04,15,09,55,9.10
2017,04,15,09,56,9.10
2017,04,15,09,57,9.10
2017,04,15,09,58,9.10
2017,04,15,09,59,9.10
2017,04,15,10,00,9.00
2017,04,15,10,01,9.00
2017,04,15,10,02,9.00
2017,04,15,10,03,8.90
2017,04,15,10,04,8.90
2017,04,15,10,05,8.80
2017,04,15,10,06,8.90
2017,04,15,10,07,8.90
2017,04,15,10,08,9.00
2017,04,15,10,09,9.00
2017,04,15,10,10,9.00
2017,04,15,10,11,9.00
2017,04,15,10,12,9.00
2017,04,15,10,13,9.00
2017,04,15,10,14,9.00
2017,04,15,10,15,9.10
2017,04,15,10,16,9.10
2017,04,15,10,17,9.10
2017,04,15,10,18,9.10
2017,04,15,10,19,9.10
2017,04,15,10,20,9.10
2017,04,15,10,21,9.10
2017,04,15,10,22,9.10
2017,04,15,10,23,9.10
2017,04,15,10,24,9.10
2017,04,15,10,25,9.00
2017,04,15,10,26,9.00
2017,04,15,10,27,9.00
2017,04,15,10,28,9.00
2017,04,15,10,29,9.10
2017,04,15,10,30,9.10
2017,04,15,10,31,9.20
2017,04,15,10,32,9.30
2017,04,15,10,33,9.40
2017,04,15,10,34,9.50
2017,04,15,10,35,9.50
2017,04,15,10,36,9.50
2017,04,15,10,37,9.60
2017,04,15,10,38,9.60
2017,04,15,10,39,9.60
2017,04,15,10,40,9.60
2017,04,15,10,41,9.50
2017,04,15,10,42,9.50
2017,04,15,10,43,9.50
2017,04,15,10,44,9.50
2017,04,15,10,45,9.60
2017,04,15,10,46,9.60
2017,04,15,10,47,9.60
2017,04,15,10,48,9.60
2017,04,15,10,49,9.60
2017,04,15,10,50,9.60
2017,04,15,10,51,9.60
2017,04,15,10,52,9.60
2017,04,15,10,53,9.70
2017,04,15,10,54,9.70
2017,04,15,10,55,9.70
2017,04,15,10,56,9.80
2017,04,15,10,57,9.80
2017,04,15,10,58,9.90
2017,04,15,10,59,9.90
2017,04,15,11,00,10.00
2017,04,15,11,01,10.00
2017,04,15,11,02,10.10
2017,04,15,11,03,10.10
2017,04,15,11,04,10.00
2017,04,15,11,05,9.90
2017,04,15,11,06,9.90
2017,04,15,11,07,9.90
2017,04,15,11,08,10.00
2017,04,15,11,09,10.00
2017,04,15,11,10,10.00
2017,04,15,11,11,10.00
2017,04,15,11,12,10.10
2017,04,15,11,13,10.10
2017,04,15,11,14,10.20
2017,04,15,11,15,10.20
2017,04,15,11,16,10.20
2017,04,15,11,17,10.20
2017,04,15,11,18,10.30
2017,04,15,11,19,10.30
2017,04,15,11,20,10.30
2017,04,15,11,21,10.40
2017,04,15,11,22,10.50
2017,04,15,11,23,10.50
2017,04,15,11,24,10.50
2017,04,15,11,25,10.40
2017,04,15,11,26,10.40
2017,04,15,11,27,10.50
2017,04,15,11,28,10.50
2017,04,15,11,29,10.50
2017,04,15,11,30,10.40
2017,04,15,11,31,10.40
2017,04,15,11,32,10.40
2017,04,15,11,33,10.40
2017,04,15,11,34,10.50
2017,04,15,11,35,10.40
2017,04,15,11,36,10.40
2017,04,15,11,37,10.40
2017,04,15,11,38,10.40
2017,04,15,11,39,10.40
2017,04,15,11,40,10.40
2017,04,15,11,41,10.50
2017,04,15,11,42,10.50
2017,04,15,11,43,10.60
2017,04,15,11,44,10.60
2017,04,15,11,45,10.70
2017,04,15,11,46,10.80
2017,04,15,11,47,10.80
2017,04,15,11,48,10.90
2017,04,15,11,49,10.90
2017,04,15,11,50,11.00
2017,04,15,11,51,11.00
2017,04,15,11,52,11.00
2017,04,15,11,53,10.90
2017,04,15,11,54,10.90
2017,04,15,11,55,10.90
2017,04,15,11,56,10.90
2017,04,15,11,57,10.90
2017,04,15,11,58,10.90
2017,04,15,11,59,10.90
2017,04,15,12,00,11.00
2017,04,15,12,01,11.00
2017,04,15,12,02,11.10
2017,04,15,12,03,11.10
2017,04,15,12,04,11.20
2017,04,15,12,05,11.20
2017,04,15,12,06,11.30
2017,04,15,12,07,11.30
2017,04,15,12,08,11.30
2017,04,15,12,09,11.30
2017,04,15,12,10,11.30
2017,04,15,12,11,11.40
2017,04,15,12,12,11.50
2017,04,15,12,13,11.60
2017,04,15,12,14,11.60
2017,04,15,12,15,11.70
2017,04,15,12,16,11.70
2017,04,15,12,17,11.70
2017,04,15,12,18,11.70
2017,04,15,12,19,11.70
2017,04,15,12,20,11.60
2017,04,15,12,21,11.60
2017,04,15,12,22,11.60
2017,04,15,12,23,11.60
2017,04,15,12,24,11.70
2017,04,15,12,25,11.70
2017,04,15,12,26,11.80
2017,04,15,12,27,11.80
2017,04,15,12,28,11.90
2017,04,15,12,29,12.00
2017,04,15,12,30,12.00
2017,04,15,12,31,11.90
2017,04,15,12,32,11.90
2017,04,15,12,33,11.90
2017,04,15,12,34,11.80
2017,04,15,12,35,11.80
2017,04,15,12,36,11.70
2017,04,15,12,37,11.80
2017,04,15,12,38,11.80
2017,04,15,12,39,11.80
2017,04,15,12,40,11.90
2017,04,15,12,41,11.90
2017,04,15,12,42,11.90
2017,04,15,12,43,12.00
2017,04,15,12,44,12.10
2017,04,15,12,45,12.10
2017,04,15,12,46,12.10
2017,04,15,12,47,12.10
2017,04,15,12,48,12.10
2017,04,15,12,49,12.10
2017,04,15,12,50,12.20
2017,04,15,12,51,12.20
2017,04,15,12,52,12.20
2017,04,15,12,53,12.30
2017,04,15,12,54,12.30
2017,04,15,12,55,12.30
2017,04,15,12,56,12.40
2017,04,15,12,57,12.40
2017,04,15,12,58,12.30
2017,04,15,12,59,12.30
2017,04,15,13,00,12.30
2017,04,15,13,01,12.30
2017,04,15,13,02,12.40
2017,04,15,13,03,12.40
2017,04,15,13,04,12.50
2017,04,15,13,05,12.60
2017,04,15,13,06,12.70
2017,04,15,13,07,12.70
2017,04,15,13,08,12.80
2017,04,15,13,09,12.80
2017,04,15,13,10,12.80
2017,04,15,13,11,12.70
2017,04,15,13,12,12.60
2017,04,15,13,13,12.60
2017,04,15,13,14,12.50
2017,04,15,13,15,12.50
2017,04,15,13,16,12.50
2017,04,15,13,17,12.60
2017,04,15,13,18,12.70
2017,04,15,13,19,12.60
2017,04,15,13,20,12.60
2017,04,15,13,21,12.60
2017,04,15,13,22,12.70
2017,04,15,13,23,12.70
2017,04,15,13,24,12.70
2017,04,15,13,25,12.80
2017,04,15,13,26,12.80
2017,04,15,13,27,12.80
2017,04,15,13,28,12.80
2017,04,15,13,29,12.70
2017,04,15,13,30,12.60
2017,04,15,13,31,12.60
2017,04,15,13,32,12.50
2017,04,15,13,33,12.50
2017,04,15,13,34,12.50
2017,04,15,13,35,12.50
2017,04,15,13,36,12.50
2017,04,15,13,37,12.50
2017,04,15,13,38,12.50
2017,04,15,13,39,12.50
2017,04,15,13,40,12.60
2017,04,15,13,41,12.70
2017,04,15,13,42,12.70
2017,04,15,13,43,12.70
2017,04,15,13,44,12.70
2017,04,15,13,45,12.70
2017,04,15,13,46,12.70
2017,04,15,13,47,12.80
2017,04,15,13,48,12.80
2017,04,15,13,49,12.90
2017,04,15,13,50,13.00
2017,04,15,13,51,13.00
2017,04,15,13,52,13.10
2017,04,15,13,53,13.10
2017,04,15,13,54,13.20
2017,04,15,13,55,13.20
2017,04,15,13,56,13.20
2017,04,15,13,57,13.20
2017,04,15,13,58,13.10
2017,04,15,13,59,13.00
2017,04,15,14,00,13.00
2017,04,15,14,01,13.00
2017,04,15,14,02,13.00
2017,04,15,14,03,13.00
2017,04,15,14,04,13.00
2017,04,15,14,05,13.00
2017,04,15,14,06,13.00
2017,04,15,14,07,12.90
2017,04,15,14,08,12.90
2017,04,15,14,09,12.80
2017,04,15,14,10,12.90
2017,04,15,14,11,13.00
2017,04,15,14,12,13.00
2017,04,15,14,13,13.10
2017,04,15,14,14,13.10
2017,04,15,14,15,13.20
2017,04,15,14,16,13.10
2017,04,15,14,17,13.10
2017,04,15,14,18,13.00
2017,04,15,14,19,12.90
2017,04,15,14,20,13.00
2017,04,15,14,21,13.00
2017,04,15,14,22,13.00
2017,04,15,14,23,12.90
2017,04,15,14,24,12.90
2017,04,15,14,25,12.80
2017,04,15,14,26,12.80
2017,04,15,14,27,12.90
2017,04,15,14,28,12.90
2017,04,15,14,29,13.00
2017,04,15,14,30,13.10
2017,04,15,14,31,13.10
2017,04,15,14,32,13.20
2017,04,15,14,33,13.20
2017,04,15,14,34,13.20
2017,04,15,14,35,13.20
2017,04,15,14,36,13.20
2017,04,15,14,37,13.20
2017,04,15,14,38,13.20
2017,04,15,14,39,13.10
2017,04,15,14,40,13.00
2017,04,15,14,41,12.90
2017,04,15,14,42,12.80
2017,04,15,14,43,12.90
2017,04,15,14,44,12.90
2017,04,15,14,45,12.90
2017,04,15,14,46,12.90
2017,04,15,14,47,13.00
2017,04,15,14,48,13.00
2017,04,15,14,49,13.00
2017,04,15,14,50,13.10
2017,04,15,14,51,13.10
2017,04,15,14,52,13.10
2017,04,15,14,53,13.10
2017,04,15,14,54,13.10
2017,04,15,14,55,13.00
2017,04,15,14,56,13.00
2017,04,15,14,57,13.00
2017,04,15,14,58,13.00
2017,04,15,14,59,12.90
2017,04,15,15,00,13.00
2017,04,15,15,01,13.10
2017,04,15,15,02,13.10
2017,04,15,15,03,13.10
2017,04,15,15,04,13.10
2017,04,15,15,05,13.10
2017,04,15,15,06,13.10
2017,04,15,15,07,13.10
2017,04,15,15,08,13.10
2017,04,15,15,09,13.10
2017,04,15,15,10,13.10
2017,04,15,15,11,13.10
2017,04,15,15,12,13.10
2017,04,15,15,13,13.10
2017,04,15,15,14,13.10
2017,04,15,15,15,13.10
2017,04,15,15,16,13.00
2017,04,15,15,17,13.00
2017,04,15,15,18,12.90
2017,04,15,15,19,12.90
2017,04,15,15,20,12.90
2017,04,15,15,21,13.00
2017,04,15,15,22,13.10
2017,04,15,15,23,13.10
2017,04,15,15,24,13.20
2017,04,15,15,25,13.30
2017,04,15,15,26,13.30
2017,04,15,15,27,13.30
2017,04,15,15,28,13.20
2017,04,15,15,29,13.10
2017,04,15,15,30,13.00
2017,04,15,15,31,13.00
2017,04,15,15,32,12.90
2017,04,15,15,33,12.80
2017,04,15,15,34,12.80
2017,04,15,15,35,12.70
2017,04,15,15,36,12.70
2017,04,15,15,37,12.60
2017,04,15,15,38,12.50
2017,04,15,15,39,12.30
2017,04,15,15,40,12.30
2017,04,15,15,41,12.30
2017,04,15,15,42,12.10
2017,04,15,15,43,11.90
2017,04,15,15,44,11.60
2017,04,15,15,45,11.40
2017,04,15,15,46,11.30
2017,04,15,15,47,11.30
2017,04,15,15,48,11.20
2017,04,15,15,49,11.20
2017,04,15,15,50,11.10
2017,04,15,15,51,11.10
2017,04,15,15,52,11.10
2017,04,15,15,53,11.10
2017,04,15,15,54,11.00
2017,04,15,15,55,11.00
2017,04,15,15,56,10.90
2017,04,15,15,57,11.00
2017,04,15,15,58,11.00
2017,04,15,15,59,11.10
2017,04,15,16,00,11.10
2017,04,15,16,01,11.10
2017,04,15,16,02,11.20
2017,04,15,16,03,11.20
2017,04,15,16,04,11.20
2017,04,15,16,05,11.20
2017,04,15,16,06,11.30
2017,04,15,16,07,11.40
2017,04,15,16,08,11.50
2017,04,15,16,09,11.60
2017,04,15,16,10,11.70
2017,04,15,16,11,11.70
2017,04,15,16,12,11.80
2017,04,15,16,13,11.80
2017,04,15,16,14,11.90
2017,04,15,16,15,11.90
2017,04,15,16,16,12.00
2017,04,15,16,17,12.10
2017,04,15,16,18,12.10
2017,04,15,16,19,12.20
2017,04,15,16,20,12.20
2017,04,15,16,21,12.20
2017,04,15,16,22,12.20
2017,04,15,16,23,12.20
2017,04,15,16,24,12.10
2017,04,15,16,25,12.10
2017,04,15,16,26,12.10
2017,04,15,16,27,12.10
2017,04,15,16,28,12.10
2017,04,15,16,29,12.00
2017,04,15,16,30,12.00
2017,04,15,16,31,11.90
2017,04,15,16,32,11.90
2017,04,15,16,33,11.80
2017,04,15,16,34,11.80
2017,04,15,16,35,11.70
2017,04,15,16,36,11.60
2017,04,15,16,37,11.60
2017,04,15,16,38,11.60
2017,04,15,16,39,11.60
2017,04,15,16,40,11.50
2017,04,15,16,41,11.40
2017,04,15,16,42,11.40
2017,04,15,16,43,11.30
2017,04,15,16,44,11.20
2017,04,15,16,45,11.10
2017,04,15,16,46,11.10
2017,04,15,16,47,11.00
2017,04,15,16,48,10.90
2017,04,15,16,49,10.90
2017,04,15,16,50,10.80
2017,04,15,16,51,10.80
2017,04,15,16,52,10.70
2017,04,15,16,53,10.70
2017,04,15,16,54,10.70
2017,04,15,16,55,10.70
2017,04,15,16,56,10.70
2017,04,15,16,57,10.60
2017,04,15,16,58,10.60
2017,04,15,16,59,10.60
2017,04,15,17,00,10.60
2017,04,15,17,01,10.60
2017,04,15,17,02,10.60
2017,04,15,17,03,10.60
2017,04,15,17,04,10.60
2017,04,15,17,05,10.60
2017,04,15,17,06,10.60
2017,04,15,17,07,10.60
2017,04,15,17,08,10.60
2017,04,15,17,09,10.60
2017,04,15,17,10,10.60
2017,04,15,17,11,10.60
2017,04,15,17,12,10.60
2017,04,15,17,13,10.60
2017,04,15,17,14,10.60
2017,04,15,17,15,10.60
2017,04,15,17,16,10.60
2017,04,15,17,17,10.70
2017,04,15,17,18,10.70
2017,04,15,17,19,10.70
2017,04,15,17,20,10.70
2017,04,15,17,21,10.70
2017,04,15,17,22,10.70
2017,04,15,17,23,10.60
2017,04,15,17,24,10.50
2017,04,15,17,25,10.50
2017,04,15,17,26,10.40
2017,04,15,17,27,10.40
2017,04,15,17,28,10.40
2017,04,15,17,29,10.30
2017,04,15,17,30,10.30
2017,04,15,17,31,10.30
2017,04,15,17,32,10.30
2017,04,15,17,33,10.30
2017,04,15,17,34,10.20
2017,04,15,17,35,10.20
2017,04,15,17,36,10.20
2017,04,15,17,37,10.20
2017,04,15,17,38,10.10
2017,04,15,17,39,10.10
2017,04,15,17,40,10.00
2017,04,15,17,41,10.00
2017,04,15,17,42,10.00
2017,04,15,17,43,10.00
2017,04,15,17,44,10.00
2017,04,15,17,45,10.00
2017,04,15,17,46,9.90
2017,04,15,17,47,9.90
2017,04,15,17,48,10.00